This is the latest recevied weather packets stored in our database for station/object WZ9ZZZ-1. If no packets are shown the sender has not sent any weather packets the latest 1 day(s).
| Time | Temp. | Humidity | Pressure | Rain* | Wind** | Luminosity | Snow |
|---|---|---|---|---|---|---|---|
| 1778099970 | 28.89° C | 81% | 1012.5 hPa | 0 mm | - | 286 W/m² | - |
| 1778099667 | 28.89° C | 82% | 1012.7 hPa | 0 mm | - | 435 W/m² | - |
| 1778099061 | 28.33° C | 82% | 1012.8 hPa | 0 mm | - | 332 W/m² | - |
| 1778098455 | 27.78° C | 84% | 1013 hPa | 0 mm | - | 297 W/m² | - |
| 1778096938 | 27.78° C | 85% | 1013.1 hPa | 0 mm | - | 213 W/m² | - |
| 1778096635 | 27.78° C | 85% | 1013.4 hPa | 0 mm | - | 157 W/m² | - |
| 1778096029 | 28.33° C | 85% | 1013.3 hPa | 0 mm | - | 324 W/m² | - |
| 1778095422 | 28.33° C | 83% | 1013.3 hPa | 0 mm | - | 232 W/m² | - |
| 1778093906 | 27.78° C | 87% | 1013.3 hPa | 0 mm | - | 294 W/m² | - |
| 1778091784 | 27.78° C | 84% | 1014 hPa | 0 mm | - | 173 W/m² | - |
| 1778090876 | 27.78° C | 84% | 1014.3 hPa | 0 mm | - | 164 W/m² | - |
| 1778090572 | 28.33° C | 83% | 1014.2 hPa | 0 mm | - | 102 W/m² | - |
| 1778089663 | 28.33° C | 82% | 1014.4 hPa | 0 mm | - | 268 W/m² | - |
| 1778088451 | 27.78° C | 84% | 1014.6 hPa | 0 mm | - | 328 W/m² | - |
| 1778086635 | 27.22° C | 86% | 1014.6 hPa | 0 mm | - | 183 W/m² | - |
| 1778085117 | 26.67° C | 89% | 1014.8 hPa | 0 mm | - | 154 W/m² | - |
| 1778084511 | 26.67° C | 90% | 1014.5 hPa | 0 mm | - | 174 W/m² | - |
| 1778084208 | 26.11° C | 91% | 1014.4 hPa | 0 mm | - | 139 W/m² | - |
| 1778080650 | 26.11° C | 91% | 1013.6 hPa | 0 mm | - | 55 W/m² | - |
| 1778079133 | 26.11° C | 92% | 1013.2 hPa | 0 mm | - | 101 W/m² | - |
| 1778078225 | 25.56° C | 93% | 1013.2 hPa | 0 mm | - | 89 W/m² | - |
| 1778077621 | 25.56° C | 93% | 1013.2 hPa | 0 mm | - | 88 W/m² | - |
| 1778077016 | 25.56° C | 93% | 1013.3 hPa | 0 mm | - | 87 W/m² | - |
| 1778076714 | 25.56° C | 93% | 1013.6 hPa | 0 mm | - | 77 W/m² | - |
| 1778075198 | 25.56° C | 94% | 1013.3 hPa | 0 mm | - | 138 W/m² | - |
* Rain latest hour (hover to see other rain measurements)
** Current wind speed in m/s (hover to see current wind gust speed)